Location: Unspecified
(0.0000°N, 0.0000°E)
Time: 15:36:04
(UTC+00:00)

Courier 1B - Pass Details

Date: 18 February 2026
Orbit: 962 x 1208 km, 28.3° (Epoch: 16 March)

Event Time Altitude Azimuth Distance (km) Brightness Sun altitude
Rises 18:48:17 0° 292° (WNW) 3,811 11.6 -8.4°
Reaches altitude 10° 18:53:33 10° 325° (NW) 2,925 10.3 -9.7°
Maximum altitude 18:55:36 11° 342° (NNW) 2,858 10.0 -10.2°
Drops below altitude 10° 18:57:40 10° 358° (N) 2,978 9.9 -10.7°
Sets 19:03:14 0° 31° (NNE) 4,003 10.3 -12.1°
Enters shadow 19:03:17 - 31° (NNE) 4,014 10.3 -12.1°
